Location: Lourdes
(43.1000°N, 0.0500°W)
Time: 10:39:28
(UTC+00:00)

Cosmos 1151 Rocket - Pass Details

Date: 18 April 2021
Orbit: 593 x 614 km, 82.5° (Epoch: 08 May)

Event Time Altitude Azimuth Distance (km) Brightness Sun altitude
Exits shadow 23:21:43 14° 23° (NNE) 1,678 5.8 -35.0°
Drops below altitude 10° 23:22:26 10° 20° (NNE) 1,953 6.2 -35.1°
Sets 23:24:43 0° 15° (NNE) 2,865 7.3 -35.2°
